Location: *
(37.4917°N, 71.5558°E)
Time: 02:11:34
(UTC+00:00)

Cosmos 2026 Rocket - Pass Details

Date: 09 April 2020
Orbit: 940 x 1000 km, 82.9° (Epoch: 31 May)

Event Time Altitude Azimuth Distance (km) Brightness Sun altitude
Rises 23:41:12 0° 195° (SSW) 3,615 6.6 -13.2°
Reaches altitude 10° 23:43:44 10° 198° (SSW) 2,666 5.9 -12.7°
Maximum altitude 23:49:44 61° 279° (W) 1,061 4.0 -11.6°
Drops below altitude 10° 23:55:45 10° 359° (N) 2,663 6.5 -10.5°
Sets 23:58:16 0° 3° (N) 3,611 7.3 -10.0°
